Regional Weather Roundup
Issued by NWS Austin/San Antonio, TX

Home | Current Version | Previous Version | Text Only | Print | Product List | Glossary On
Versions: 1 2 3 4 5 6 7 8 9 10 11 12 13 14 15 16 17 18 19 20 21 22 23 24 25 26 27 28 29 30 31 32 33 34 35 36 37 38 39 40 41 42 43 44 45 46 47 48 49 50
000
ASUS44 KEWX 210701
RWREWX
SOUTH TEXAS REGIONAL WEATHER ROUNDUP
NATIONAL WEATHER SERVICE AUSTIN/SAN ANTONIO TX
200 AM CDT SUN APR 21 2019

NOTE: "FAIR" INDICATED FEW OR NO CLOUDS BELOW 12,000 FEET WITH NO
SIGNIFICANT WEATHER AND/OR OBSTRUCTIONS TO VISIBILITY.

* - THESE STATIONS ARE NOT NWS OR FAA STATIONS...AND ARE NOT SUBJECT
    TO NWS AND FAA QUALITY CONTROL.

TXZ171-172-183>190-210800-
TEXAS HILL COUNTRY AND EDWARDS PLATEAU

CITY           SKY/WX    TMP DP  RH WIND       PRES   REMARKS
JUNCTION       CLEAR     64  52  64 CALM      29.94S
*LLANO         CLEAR     63  55  77 CALM      29.98S
BURNET         CLEAR     63  54  72 S8        29.98F
*HORSESHOE BAY CLEAR     64  51  64 S7        29.95F
*KERRVILLE     CLEAR     59  53  78 S10       29.98F
*FREDERICKSBRG CLEAR     60  51  71 S8        29.98S
*ROCKSPRINGS     N/A     63  54  72 SE15G25   30.00S
*BOERNE STAGE  CLEAR     59  50  72 S8        30.00F
*CASTROVILLE   CLEAR     62  53  72 SE3       29.99F
HONDO          CLEAR     62  55  77 E7        29.97F
*UVALDE        CLEAR     58  55  89 E7        29.96S
DEL RIO        PTCLDY    69  55  60 E10       29.89F
LAUGHLIN AFB   PTCLDY    66  56  70 SE13      29.90F
CARRIZO SPRGS  CLEAR     64  54  68 SE6       29.90F
*FAITH RANCH   CLEAR     70  54  56 SE8G15    29.91S
$$

TXZ173-191>194-202-209-217>225-228-210800-
CENTRAL AND SOUTH CENTRAL TEXAS

CITY           SKY/WX    TMP DP  RH WIND       PRES   REMARKS
GEORGETOWN     PTCLDY    64  54  69 S14       29.98F
AUSTIN/BERGSTM PTCLDY    60  56  86 S6        29.97F
AUSTIN/MABRY   PTCLDY    63  55  75 VRB5      29.98F
*AUSTIN/EXEC   PTCLDY    59  55  88 S7        29.98F
*LAGO VISTA    PTCLDY    62  53  71 S10G21    29.98F
SAN MARCOS     PTCLDY    59  55  87 S5        29.99F
NEW BRAUNFELS  CLEAR     59  55  87 S5        29.97F
RANDOLPH AFB   CLEAR     59  55  87 S6        29.98F
PT SAN ANTONIO CLEAR     60  56  85 SE6       29.96F
SAN ANTONIO    PTCLDY    62  55  77 S12       29.99F
STINSON FIELD  PTCLDY    60  53  77 SE5       29.96F
*LA GRANGE     CLEAR     61  60  97 S6        29.97F
*GIDDINGS      CLEAR     64  60  88 S5        29.99F
*GONZALES      CLEAR     61  59  95 SE5       29.99F
$$

TXZ163>164-176>182-195>201-210>213-226-227-235-210800-
SOUTHEAST TEXAS

CITY           SKY/WX    TMP DP  RH WIND       PRES   REMARKS
COLLEGE STN    CLEAR     59  55  87 S6        29.99F
*BRYAN         CLEAR     61  54  78 S7        30.01S
*CALDWELL      CLEAR     58  55  90 S7        30.00S
*CROCKETT        N/A     55  50  82 S5        30.03S
*BRENHAM       CLEAR     59  56  91 SE3       30.00F
HUNTSVILLE     CLEAR     60  51  72 S7        30.00F
CONROE         CLEAR     51  51 100 CALM      30.02F
HOUSTON BUSH   PTCLDY    57  53  86 S5        30.02F
HOUSTON HOBBY  FAIR      60  52  74 S6        30.02S
*HOUSTON SW AP FAIR      51  51  97 CALM      30.03S
PEARLAND       FAIR      57  54  89 CALM      30.04S
HOUSTON HOOKS  FAIR      59  53  80 S5        30.01F
ELLINGTON FLD  NOT AVBL
SUGAR LAND     FAIR      58  54  86 SE3       30.01F
*HOUSTON EXEC  FAIR      55  54  94 S6        30.02F
*CLEVELAND MUN FAIR      53  53 100 CALM      30.03F
*WHARTON       CLEAR     57  54  88 CALM      30.02F
*COLUMBUS      FAIR      58  54  88 S3        30.01F
*EAGLE LAKE    SUNNY     60  56  88 S6        30.00
$$

TXZ214>216-236>238-210800-
THE UPPER TEXAS COAST

CITY           SKY/WX    TMP DP  RH WIND       PRES   REMARKS
*ORANGE        FAIR      53  53 100 CALM      30.05S
PORT ARTHUR    FAIR      54  52  93 SW3       30.03S
GALVESTON      FAIR      66  55  67 S10       30.03F
ANGLETON       FAIR      58  54  86 CALM      30.03S
*BAY CITY      CLEAR     58  56  94 S3        30.01F
PALACIOS       CLEAR     69  63  81 S9        30.00F
$$

TXZ229>234-239>247-210800-
TEXAS COASTAL BEND AND RIO GRANDE PLAINS

CITY           SKY/WX    TMP DP  RH WIND       PRES   REMARKS
VICTORIA       CLEAR     59  57  93 SE7       29.99F
*BEEVILLE      CLEAR     60  56  87 SE6       29.98F
ROCKPORT       CLEAR     69  62  78 S13G20    29.98F
*PORT ARANSAS  CLEAR     71  63  77 SE16      29.99F
*PORT LAVACA   CLEAR     62  59  92 S6        30.00F
*INGLESIDE     CLEAR     69  63  81 S10       29.98F
CORPUS CHRISTI PTCLDY    65  61  87 SE9       29.97F
CORPUS NAS     CLEAR     73  65  75 S15       29.97F
*ROBSTOWN      NOT AVBL
ALICE          CLEAR     59  57  93 SE6       29.96F
KINGSVILLE NAS CLEAR     67  62  84 SE9       29.96F
COTULLA        CLEAR     62  55  77 SE10      29.93F
LAREDO         CLEAR     69  59  70 SE13      29.91F
$$

TXZ248>255-210800-
DEEP SOUTH TEXAS

CITY           SKY/WX    TMP DP  RH WIND       PRES   REMARKS
BROWNSVILLE    FAIR      70  65  84 SE14      29.98F
PORT ISABEL    FAIR      69  62  78 SE13      29.97F
HARLINGEN      PTCLDY    66  62  87 SE10      29.96F
*HEBBRONVILLE  CLOUDY    64  57  77 SE12      29.96S
MCALLEN        CLEAR     69  64  84 SE12      29.95F
*WESLACO       CLOUDY    67  63  86 SE7       29.95F
FALFURRIAS     CLEAR     65  59  81 SE6       29.96F
EDINBURG       FAIR      69  64  84 SE9       29.95F
*ZAPATA        FAIR      69  62  77 SE9G21    29.94F
$$

TXZ213>215-236>238-242>244-246-247-251-254-255-210800-
CMAN STATIONS

STATION/POSITION TIME  TEMP    WIND        PRES    WAVE
                       AIR SEA DIR/SP/G            HT/PER
                 (UTC) (F)     (DEG/KT/KT) (MB)    (FT/S)
SABINE PASS      0630   63 71  190/  6/  8 1018.5
SEA RIM ST PARK  0600   67     200/ 11/ 14 1017.1
NORTH JETTY/GLS  0630   69 70  200/ 14/ 16 1016.4
EAGLE POINT      0630   67 70  220/  8/ 11 1016.8
MORGANS POINT    0630   65 70  200/  2/  5 1016.5
PORT O`CONNOR    0624   70 71  160/ 14/ 17 1015.8
PORT ARANSAS     0600   71 72  150/ 17/ 19 1015.7
MALAQUITE BEACH  0624   72 74  130/ 19/ 22 1014.5
BAFFIN BAY       0624   71 72  130/ 14/ 17 1015.2
PORT ISABEL      0624   71 75  150/ 11/ 13 1016.0
$$



USA.gov is the U.S. government's official web portal to all federal, state and local government web resources and services.